Villars, Switzerland 16 day weather forecast

Slopes altitude range 1115 m - 2120m

Number of lifts: 36 Pistes: 100km

In some cases the lift and piste totals shown are for the ski domain (e.g. Three Valleys) rather than individual resort (e.g. Courchevel)

Overview

The 16 day weather forecast is fully updated 4 times every day.

    • Mon 22 APR 2019
    • Mon 22
    • 9C 19C
    • Tue 23 APR 2019
    • Tue 23
    • 9C 16C
    • Wed 24 APR 2019
    • Wed 24
    • 8C 14C
    • Thu 25 APR 2019
    • Thu 25
    • 5C 14C
    • Fri 26 APR 2019
    • Fri 26
    • 3C 8C
    • Sat 27 APR 2019
    • Sat 27
    • 3C 9C
    • Sun 28 APR 2019
    • Sun 28
    • 8C 11C
    • Mon 29 APR 2019
    • Mon 29
    • 10C 16C
    • Tue 30 APR 2019
    • Tue 30
    • 5C 10C
    • Wed 01 MAY 2019
    • Wed 01
    • 5C 13C
    • Thu 02 MAY 2019
    • Thu 02
    • 2C 11C
    • Fri 03 MAY 2019
    • Fri 03
    • 1C 21C
    • Sat 04 MAY 2019
    • Sat 04
    • 5C 20C
    • Sun 05 MAY 2019
    • Sun 05
    • 6C 11C
    • Mon 06 MAY 2019
    • Mon 06
    • 6C 8C
    • Tue 07 MAY 2019
    • Tue 07
    • 1C 8C

Date:

Time Type 0°C level Temp Chill Snow Cloud Speed Gust Dir Press
3:00 3043m 7°C 7_2 0cm 99% 2mph 2mph 1011mB
6:00 3022m 6°C 6_3 0cm 100% 3mph 3mph 1010mB
9:00 3092m 9°C 9_3 0cm 100% 3mph 4mph 1007mB
12:00 3230m 19°C 19_6 0cm 100% 6mph 7mph 1004mB
15:00 3296m 19°C 19_7 0cm 100% 7mph 8mph 1001mB
18:00 3172m 19°C 19_5 0cm 100% 5mph 13mph 1001mB
21:00 3161m 9°C 9_4 0cm 99% 4mph 5mph 1001mB
0:00 3001m 9°C 9_4 0cm 100% 4mph 5mph 1000mB
3:00 2846m 8°C 8_4 0cm 100% 4mph 10mph 999mB
6:00 2744m 8°C 8_4 0cm 100% 4mph 12mph 999mB
9:00 2700m 9°C 9_5 0cm 100% 5mph 9mph 998mB
12:00 2720m 16°C 16_4 0cm 100% 4mph 7mph 998mB
15:00 2783m 17°C 17_2 0cm 100% 2mph 4mph 997mB
18:00 2864m 17°C 17_1 0cm 100% 1mph 1mph 998mB
21:00 2776m 9°C 9_4 0cm 100% 4mph 5mph 1001mB
0:00 2841m 8°C 8_3 0cm 96% 3mph 4mph 1002mB
3:00 2832m 7°C 7_3 0cm 100% 3mph 4mph 1002mB
6:00 2832m 6°C 6_2 0cm 95% 2mph 3mph 1003mB
9:00 2656m 8°C 8_5 0cm 85% 5mph 8mph 1004mB
12:00 2350m 14°C 14_10 0cm 93% 10mph 18mph 1005mB
15:00 1988m 10°C 10_13 0cm 100% 13mph 40mph 1007mB
18:00 2552m 10°C 10_7 0cm 83% 7mph 31mph 1009mB
21:00 2645m 4°C 4_4 0cm 62% 4mph 4mph 1011mB
0:00 2904m 4°C 4_4 0cm 81% 4mph 4mph 1011mB
3:00 2960m 3°C 3_4 0cm 100% 4mph 5mph 1011mB
6:00 3034m 3°C 3_5 0cm 50% 5mph 25mph 1011mB
9:00 2932m 5°C 5_5 0cm 81% 5mph 12mph 1011mB
12:00 2564m 14°C 14_6 0cm 90% 6mph 11mph 1012mB
15:00 2459m 15°C 15_9 0cm 100% 9mph 13mph 1012mB
18:00 2425m 15°C 15_3 0cm 100% 3mph 6mph 1013mB
21:00 2170m 5°C 5_4 0cm 100% 4mph 9mph 1016mB
0:00 1560m 3°C 3_3 0cm 100% 3mph 12mph 1017mB
3:00 1561m 3°C 3_4 0cm 100% 4mph 10mph 1017mB
6:00 1616m 3°C 3_3 0cm 100% 3mph 7mph 1020mB
9:00 1466m 3°C 3_8 0cm 100% 8mph 15mph 1021mB
12:00 1675m 8°C 8_8 0cm 100% 8mph 13mph 1021mB
15:00 1713m 7°C 7_8 0cm 100% 8mph 15mph 1022mB
18:00 1641m 7°C 7_6 0cm 100% 6mph 15mph 1024mB
21:00 1543m 3°C 3_6 0cm 95% 6mph 18mph 1027mB
0:00 1475m 2°C 2_6 0cm 87% 6mph 17mph 1029mB
3:00 1443m 3°C 3_6 0cm 96% 6mph 15mph 1030mB
6:00 1493m 2°C 2_6 0cm 98% 6mph 14mph 1030mB
9:00 1647m 3°C 3_8 0cm 100% 8mph 14mph 1028mB
12:00 2000m 9°C 9_8 0cm 100% 8mph 15mph 1028mB
15:00 2208m 10°C 10_8 0cm 100% 8mph 14mph 1027mB
18:00 2338m 10°C 10_5 0cm 100% 5mph 14mph 1027mB
21:00 2430m 6°C 6_6 0cm 100% 6mph 18mph 1029mB
0:00 2429m 5°C 5_6 0cm 100% 6mph 21mph 1029mB
3:00 2412m 6°C 6_7 0cm 100% 7mph 19mph 1027mB
6:00 2585m 6°C 6_8 0cm 100% 8mph 19mph 1027mB
9:00 2619m 7°C 7_8 0cm 100% 8mph 17mph 1026mB
12:00 2729m 11°C 11_9 0cm 100% 9mph 14mph 1024mB
15:00 2789m 14°C 14_9 0cm 95% 9mph 14mph 1023mB
18:00 2845m 14°C 14_6 0cm 96% 6mph 17mph 1023mB
21:00 2816m 6°C 6_5 0cm 95% 5mph 16mph 1023mB
0:00 2753m 6°C 6_6 0cm 98% 6mph 21mph 1022mB
3:00 2636m 7°C 7_7 0cm 100% 7mph 25mph 1019mB
6:00 2709m 7°C 7_11 0cm 100% 11mph 26mph 1017mB
9:00 2643m 10°C 10_16 0cm 100% 16mph 28mph 1015mB
12:00 2549m 16°C 16_18 0cm 100% 18mph 32mph 1012mB
15:00 2589m 19°C 19_19 0cm 76% 19mph 34mph 1010mB
18:00 2580m 19°C 19_9 0cm 86% 9mph 27mph 1010mB
21:00 2381m 9°C 9_9 0cm 95% 9mph 28mph 1012mB
0:00 1936m 7°C 7_8 0cm 94% 8mph 26mph 1011mB
3:00 1583m 5°C 5_9 0cm 92% 9mph 29mph 1012mB
6:00 1347m 3°C 3_9 0cm 48% 9mph 24mph 1013mB
9:00 1475m 5°C 5_12 0cm 4% 12mph 19mph 1013mB
12:00 1601m 10°C 10_11 0cm 25% 11mph 17mph 1012mB
15:00 1654m 10°C 10_7 0cm 87% 7mph 13mph 1012mB
18:00 1660m 10°C 10_3 0cm 82% 3mph 4mph 1013mB
21:00 1628m 3°C 3_3 0cm 46% 3mph 3mph 1016mB
0:00 1559m 2°C 2_2 0cm 24% 2mph 3mph 1016mB
3:00 1496m 1°C 1_2 0cm 0% 2mph 2mph 1016mB
6:00 1420m 1°C 1_2 0cm 0% 2mph 2mph 1016mB
9:00 1484m 5°C 5_4 0cm 10% 4mph 5mph 1015mB
12:00 1748m 13°C 13_6 0cm 12% 6mph 7mph 1014mB
15:00 1816m 12°C 12_5 0cm 82% 5mph 7mph 1012mB
18:00 1814m 12°C 12_3 0cm 63% 3mph 4mph 1013mB
21:00 1773m 4°C 4_2 0cm 59% 2mph 2mph 1014mB
0:00 1743m 3°C 3_0 0cm 76% 0mph 0mph 1013mB
Afternoon 0.255208mm 2.9375 1896m 11°C 11_5 0cm 79% 5mph 7mph 1010mB
Morning 0.234375mm 2.8125 2142m 2°C 2_2 0cm 20% 2mph 3mph 1011mB
Afternoon 0mm 0 2476m 21°C 21_2 0cm 59% 2mph 8mph 1006mB
Morning 0mm 0 2645m 7°C 7_3 0cm 98% 3mph 4mph 1006mB
Afternoon 0mm 0 2746m 20°C 20_5 0cm 62% 5mph 8mph 1000mB
Morning 0.015625mm 0.0625 2931m 8°C 8_4 0cm 67% 4mph 5mph 1002mB
Afternoon 1.04688mm 2.375 2483m 11°C 11_4 0cm 86% 4mph 8mph 1000mB
Morning 1.65625mm 0.375 1954m 7°C 7_10 0cm 100% 10mph 23mph 1003mB
Afternoon 0.234375mm 0.375 1772m 8°C 8_13 0cm 100% 13mph 25mph 1007mB
Morning 0.520833mm 0.25 1203m 3°C 3_4 0cm 100% 4mph 9mph 1016mB
Afternoon 0.171875mm 1.125 1427m 8°C 8_5 9cm 80% 5mph 8mph 1018mB
Morning 0.291667mm 2.375 768m 0°C 0_5 19cm 85% 5mph 6mph 1024mB

16 day outlook at a glance

Forecast issued: 22/04/2019 08:03:47

Chat

Your comments and questions. In a resort? Let us know what it's like!


Characters left 250

For terms and conditions see Readers Comments on the Cookie and privacy policy page.